Weather History for KGXY - October, 2012

Change the Weather History Date:

Friday, October 5, 2012

  Actual Average Record
Temperature  
Mean Temperature 36 °F -  
Max Temperature 39 °F 67 °F 87 °F (1993)
Min Temperature 33 °F 37 °F 24 °F (1985)
Degree Days  
Heating Degree Days 29    
Moisture  
Dew Point 26 °F    
Average Humidity 68    
Maximum Humidity 81    
Minimum Humidity 52    
Precipitation  
Precipitation 0.00 in - - ()
Sea Level Pressure  
Sea Level Pressure 30.26 in    
Wind  
Wind Speed 11 mph (East)    
Max Wind Speed 17 mph    
Max Gust Speed 23 mph    
Visibility 10 miles    
Events      
Averages and records for this station are not official NWS values.
T = Trace of Precipitation, MM = Missing Value Source: NWS Daily Summary

Daily Weather History Graph

Daily Weather History Graph

Search for Another Location

Airport or City:

Trip Planner

Search our weather history database for the weather conditions in past years. The results will help you decide how hot, cold, wet, or windy it might be!

Date:

Astronomy

Oct. 05, 2012 Rise Set
Actual Time 6:59 AM MDT 6:33 PM MDT
Civil Twilight 6:32 AM MDT 7:00 PM MDT
Nautical Twilight 6:00 AM MDT 7:31 PM MDT
Astronomical Twilight 5:28 AM MDT 8:03 PM MDT
Moon 9:58 PM MDT (10/5) 12:10 PM MDT (10/5)
Length of Visible Light 12h 28m
Length of Day
11h 33m
Waning Gibbous, 73% of the Moon is Illuminated
Oct 5
Waning Gibbous
Oct 8
Last Quarter
Oct 15
New
Oct 21
First Quarter
Oct 29
Full

Hourly Weather History & Observations

Time (MDT) Temp. Windchill Dew Point Humidity Pressure Visibility Wind Dir Wind Speed Gust Speed Precip Events Conditions
12:15 AM 37.4 °F 29.3 °F 21.2 °F 52% 30.23 in 10.0 mi East 12.7 mph - N/A   Clear
12:35 AM 35.6 °F 26.6 °F 19.4 °F 52% 30.21 in 10.0 mi ESE 13.8 mph 20.7 mph N/A   Clear
12:55 AM 35.6 °F 26.6 °F 21.2 °F 56% 30.21 in 10.0 mi ESE 13.8 mph 20.7 mph N/A   Clear
1:15 AM 35.6 °F 25.5 °F 19.4 °F 52% 30.20 in 10.0 mi East 17.3 mph - N/A   Clear
1:35 AM 35.6 °F 25.9 °F 19.4 °F 52% 30.18 in 10.0 mi East 16.1 mph 19.6 mph N/A   Clear
1:55 AM 35.6 °F 26.6 °F 21.2 °F 56% 30.23 in 10.0 mi ENE 13.8 mph - N/A   Partly Cloudy
2:15 AM 35.6 °F 25.5 °F 21.2 °F 56% 30.20 in 10.0 mi East 17.3 mph 20.7 mph N/A   Mostly Cloudy
2:35 AM 33.8 °F 25.3 °F 21.2 °F 60% 30.19 in 10.0 mi ENE 11.5 mph 20.7 mph N/A   Mostly Cloudy
3:15 AM 33.8 °F 26.4 °F 21.2 °F 60% 30.23 in 10.0 mi NE 9.2 mph - N/A   Mostly Cloudy
3:35 AM 33.8 °F 27.0 °F 21.2 °F 60% 30.24 in 10.0 mi ENE 8.1 mph - N/A   Overcast
3:55 AM 33.8 °F 23.5 °F 21.2 °F 60% 30.21 in 10.0 mi East 16.1 mph 19.6 mph N/A   Overcast
4:15 AM 33.8 °F 24.3 °F 21.2 °F 60% 30.21 in 10.0 mi East 13.8 mph 23.0 mph N/A   Mostly Cloudy
4:35 AM 33.8 °F 23.9 °F 21.2 °F 60% 30.21 in 10.0 mi ESE 15.0 mph 21.9 mph N/A   Overcast
4:55 AM 35.6 °F 28.0 °F 23.0 °F 60% 30.21 in 10.0 mi ESE 10.4 mph - N/A   Overcast
5:55 AM 33.8 °F 25.3 °F 23.0 °F 65% 30.17 in 10.0 mi SSE 11.5 mph - N/A   Overcast
6:15 AM 35.6 °F 29.9 °F 23.0 °F 60% 30.19 in 10.0 mi SSE 6.9 mph - N/A   Mostly Cloudy
6:35 AM 35.6 °F 28.6 °F 24.8 °F 65% 30.18 in 10.0 mi SSE 9.2 mph - N/A   Overcast
7:15 AM 35.6 °F 29.2 °F 26.6 °F 70% 30.20 in 10.0 mi SE 8.1 mph - N/A   Overcast
7:35 AM 35.6 °F 31.7 °F 26.6 °F 70% 30.22 in 10.0 mi East 4.6 mph - N/A   Overcast
7:55 AM 35.6 °F 30.7 °F 26.6 °F 70% 30.22 in 10.0 mi ENE 5.8 mph - N/A   Overcast
8:15 AM 35.6 °F 29.9 °F 26.6 °F 70% 30.22 in 10.0 mi ENE 6.9 mph - N/A   Overcast
8:35 AM 35.6 °F 28.0 °F 26.6 °F 70% 30.23 in 10.0 mi East 10.4 mph - N/A   Overcast
8:55 AM 35.6 °F 27.5 °F 28.4 °F 75% 30.23 in 10.0 mi ENE 11.5 mph - N/A   Overcast
9:15 AM 35.6 °F 28.0 °F 28.4 °F 75% 30.24 in 10.0 mi ENE 10.4 mph - N/A   Overcast
9:35 AM 35.6 °F 28.6 °F 28.4 °F 75% 30.24 in 10.0 mi ENE 9.2 mph - N/A   Overcast
9:55 AM 35.6 °F 29.2 °F 28.4 °F 75% 30.25 in 10.0 mi ENE 8.1 mph - N/A   Overcast
10:35 AM 37.4 °F 30.8 °F 28.4 °F 70% 30.26 in 10.0 mi ENE 9.2 mph - N/A   Overcast
11:15 AM 37.4 °F 31.4 °F 28.4 °F 70% 30.27 in 10.0 mi ENE 8.1 mph - N/A   Overcast
11:35 AM 37.4 °F 31.4 °F 28.4 °F 70% 30.27 in 9.0 mi NE 8.1 mph - N/A   Overcast
11:55 AM 37.4 °F 30.8 °F 28.4 °F 70% 30.27 in 10.0 mi NNE 9.2 mph - N/A   Overcast
12:35 PM 39.2 °F 35.0 °F 28.4 °F 65% 30.27 in 10.0 mi ENE 5.8 mph - N/A   Overcast
12:55 PM 39.2 °F 33.0 °F 28.4 °F 65% 30.27 in 10.0 mi NE 9.2 mph - N/A   Overcast
1:15 PM 39.2 °F 33.0 °F 28.4 °F 65% 30.26 in 10.0 mi ENE 9.2 mph - N/A   Overcast
1:35 PM 39.2 °F 33.0 °F 28.4 °F 65% 30.26 in 9.0 mi NNE 9.2 mph - N/A   Overcast
1:55 PM 39.2 °F 31.2 °F 28.4 °F 65% 30.26 in 10.0 mi NE 13.8 mph - N/A   Overcast
2:15 PM 39.2 °F 31.2 °F 28.4 °F 65% 30.26 in 10.0 mi NE 13.8 mph - N/A   Overcast
2:35 PM 39.2 °F 31.6 °F 28.4 °F 65% 30.26 in 10.0 mi NE 12.7 mph - N/A   Overcast
2:55 PM 39.2 °F 32.0 °F 28.4 °F 65% 30.27 in 10.0 mi NE 11.5 mph - N/A   Overcast
3:15 PM 39.2 °F 31.6 °F 28.4 °F 65% 30.27 in 10.0 mi NE 12.7 mph - N/A   Overcast
3:35 PM 39.2 °F 32.5 °F 28.4 °F 65% 30.27 in 10.0 mi NE 10.4 mph - N/A   Overcast
3:55 PM 39.2 °F 33.0 °F 28.4 °F 65% 30.28 in 10.0 mi ENE 9.2 mph - N/A   Overcast
4:15 PM 37.4 °F 30.8 °F 28.4 °F 70% 30.28 in 10.0 mi ENE 9.2 mph - N/A   Overcast
4:35 PM 37.4 °F 30.8 °F 28.4 °F 70% 30.29 in 10.0 mi ENE 9.2 mph - N/A   Overcast
4:55 PM 37.4 °F 30.8 °F 28.4 °F 70% 30.29 in 10.0 mi ENE 9.2 mph - N/A   Overcast
5:15 PM 37.4 °F 30.3 °F 28.4 °F 70% 30.29 in 10.0 mi ENE 10.4 mph - N/A   Overcast
5:35 PM 37.4 °F 32.1 °F 28.4 °F 70% 30.28 in 10.0 mi ENE 6.9 mph - N/A   Overcast
6:15 PM 37.4 °F 30.8 °F 28.4 °F 70% 30.29 in 10.0 mi ENE 9.2 mph - N/A   Overcast
6:35 PM 35.6 °F 27.5 °F 28.4 °F 75% 30.30 in 10.0 mi East 11.5 mph - N/A   Overcast
6:55 PM 35.6 °F 28.0 °F 28.4 °F 75% 30.30 in 10.0 mi East 10.4 mph - N/A   Overcast
7:15 PM 35.6 °F 27.5 °F 28.4 °F 75% 30.30 in 10.0 mi East 11.5 mph - N/A   Overcast
7:35 PM 35.6 °F 29.2 °F 28.4 °F 75% 30.31 in 10.0 mi East 8.1 mph - N/A   Overcast
7:55 PM 35.6 °F 29.2 °F 28.4 °F 75% 30.32 in 10.0 mi ESE 8.1 mph - N/A   Overcast
8:15 PM 35.6 °F 28.6 °F 28.4 °F 75% 30.33 in 10.0 mi East 9.2 mph - N/A   Overcast
8:35 PM 35.6 °F 28.6 °F 28.4 °F 75% 30.33 in 10.0 mi ESE 9.2 mph - N/A   Overcast
8:55 PM 35.6 °F 28.0 °F 28.4 °F 75% 30.32 in 10.0 mi ESE 10.4 mph - N/A   Overcast
9:35 PM 35.6 °F 29.2 °F 28.4 °F 75% 30.31 in 10.0 mi East 8.1 mph - N/A   Overcast
9:55 PM 35.6 °F 28.6 °F 28.4 °F 75% 30.30 in 10.0 mi ESE 9.2 mph - N/A   Overcast
10:15 PM 35.6 °F 29.2 °F 28.4 °F 75% 30.30 in 10.0 mi SE 8.1 mph - N/A   Overcast
10:35 PM 33.8 °F 27.0 °F 28.4 °F 81% 30.30 in 10.0 mi SE 8.1 mph - N/A   Overcast
10:55 PM 33.8 °F 27.7 °F 28.4 °F 81% 30.30 in 10.0 mi ESE 6.9 mph - N/A   Overcast
11:15 PM 33.8 °F 27.7 °F 28.4 °F 81% 30.29 in 10.0 mi SE 6.9 mph - N/A   Overcast
11:35 PM 33.8 °F 29.6 °F 28.4 °F 81% 30.28 in 10.0 mi ESE 4.6 mph - N/A   Overcast
11:55 PM 33.8 °F 28.6 °F 28.4 °F 81% 30.28 in 10.0 mi ESE 5.8 mph - N/A   Overcast